Location: Alumbaugh
(37.5976°N, 83.9299°W)
Time: 19:50:30
(UTC+00:00)

X-37B - Visible Passes

Search period start: 08 December 2022 00:00
Search period end: 18 December 2022 00:00
Orbit: 277 x 277 km, 45.0° (Epoch: 01 November)

Date Brightness Start Highest point End Pass type
(mag) Time Alt. Az. Time Alt. Az. Time Alt. Az.
08 Dec 0.9 23:30:41 10° W 23:33:00 38° NNW 23:33:32 33° NNE visible
09 Dec 1.5 23:31:40 10° WNW 23:33:47 24° NNW 23:34:12 23° N visible
10 Dec 1.9 23:32:46 10° WNW 23:34:36 18° NNW 23:34:52 18° N visible
11 Dec 2.2 23:33:51 10° NW 23:35:28 15° N 23:35:31 15° N visible
12 Dec 2.3 23:34:52 10° NW 23:36:09 14° N 23:36:09 14° N visible
13 Dec 2.3 23:35:41 10° NW 23:36:50 14° N 23:36:50 14° N visible
14 Dec 2.2 23:36:22 10° NW 23:37:33 16° N 23:37:33 16° N visible
15 Dec 1.9 23:36:56 10° NW 23:38:21 19° N 23:38:21 19° N visible
16 Dec 1.3 23:37:29 10° NW 23:39:16 28° N 23:39:16 28° N visible
17 Dec 0.1 23:38:03 10° NW 23:40:21 51° N 23:40:21 51° N visible
